Location: Highland Meadows Observing Site
(48.4428°N, 114.5461°W)
Time: 02:14:31
(UTC-06:00)

Amateur Radio Satellites - All Passes

Search period start: 27 August 2016 01:44
Search period end: 28 August 2016 01:44
Location: Highland Meadows Observing Site, 48.4428°N, 114.5461°W

Satellite Date Start Highest point End Downlink Frequencies (MHz)
Time Altitude Azimuth
ITUPSAT 1 27 Aug 01:46:59 01:50:11 18° 58° (ENE) 01:53:24 437.325
UKube-1 27 Aug 01:50:14 01:53:58 28° 265° (W) 01:57:44 .
NANOSAT C BR1 27 Aug 01:51:24 01:55:33 56° 288° (WNW) 01:59:39 145.865
JAS-2 27 Aug 01:52:07 01:58:45 70° 103° (ESE) 02:06:09 435.910
UNISAT 6 27 Aug 01:53:26 01:54:59 12° 304° (NW) 01:56:31 437.425
50 SAT 27 Aug 01:58:25 01:58:49 10° 272° (W) 01:59:12 437.505
RS-15 27 Aug 02:18:34 02:29:37 54° 114° (ESE) 02:41:13 29.354- 29.394
SWISSCUBE 27 Aug 02:19:06 02:23:26 36° 66° (ENE) 02:27:47 437.505
DANDE 27 Aug 02:20:09 02:22:13 20° 292° (WNW) 02:24:29 436.750
O/OREOS (USA 219) 27 Aug 02:27:16 02:28:10 10° 264° (W) 02:29:03 437.305
SO-50 27 Aug 02:31:51 02:36:22 37° 320° (NW) 02:40:48 436.795
QB50P1 27 Aug 02:35:40 02:38:53 21° 297° (WNW) 02:42:05 145.935-145.965
BEESAT 27 Aug 02:36:05 02:40:37 46° 68° (ENE) 02:45:11 436.000
BUGSAT 1 27 Aug 02:36:56 02:40:55 44° 290° (WNW) 02:44:50 437.445
Gurwin Techsat 1B 27 Aug 02:41:17 02:45:11 20° 90° (E) 02:49:03 435.225
POPSAT HIP 1 27 Aug 02:45:51 02:48:44 18° 299° (WNW) 02:51:36 437.405
MOZHAYETS 4 27 Aug 02:59:08 03:01:30 14° 57° (ENE) 03:03:53
KKS-1 27 Aug 03:00:01 03:01:43 12° 55° (NE) 03:03:26 437.445
TISAT 1 27 Aug 03:12:40 03:15:38 18° 268° (W) 03:18:38 437.305
DUCHIFAT 1 27 Aug 03:15:57 03:17:10 11° 304° (NW) 03:18:21 145.980
Oscar 19 27 Aug 03:16:01 03:21:16 77° 104° (ESE) 03:26:27 437.125/150
ITUPSAT 1 27 Aug 03:22:47 03:27:31 70° 257° (WSW) 03:32:18 437.325
STARS 27 Aug 03:37:22 03:39:41 14° 57° (ENE) 03:41:59 437.465
JAS-2 27 Aug 03:37:57 03:43:24 29° 300° (WNW) 03:49:21 435.910
AO-7 27 Aug 03:56:56 04:02:40 20° 88° (E) 04:08:22 29.400- 29.500
SWISSCUBE 27 Aug 03:57:05 04:01:17 31° 264° (W) 04:05:30 437.505
BEESAT 27 Aug 04:14:47 04:18:37 24° 267° (W) 04:22:29 436.000
SO-50 27 Aug 04:15:37 04:18:09 14° 343° (NNW) 04:20:41 436.795
CUBESAT XI-V 27 Aug 04:17:35 04:19:30 12° 55° (NE) 04:21:25 437.345
Gurwin Techsat 1B 27 Aug 04:20:19 04:25:36 65° 290° (WNW) 04:30:51 435.225
ITAMSAT 1 27 Aug 04:28:31 04:33:36 52° 101° (E) 04:38:38 435.822/435.867
RS-15 27 Aug 04:30:25 04:42:04 62° 320° (NW) 04:54:17 29.354- 29.394
KKS-1 27 Aug 04:33:03 04:37:32 80° 75° (ENE) 04:42:04 437.445
MOZHAYETS 4 27 Aug 04:33:28 04:38:02 86° 258° (WSW) 04:42:38
PHONESAT 2.4 27 Aug 04:33:47 04:35:44 16° 171° (S) 04:37:42 2401.200-2431.200
Oscar 19 27 Aug 04:56:25 05:00:00 19° 303° (WNW) 05:03:34 437.125/150
Cosmos 2491 27 Aug 05:07:23 05:15:19 35° 65° (ENE) 05:23:13 435.465 / 435.565
STARS 27 Aug 05:10:58 05:15:26 84° 258° (WSW) 05:19:54 437.465
HORYU 2 27 Aug 05:43:48 05:46:37 16° 90° (E) 05:49:26 437.375
AO-7 27 Aug 05:48:20 05:56:43 83° 109° (ESE) 06:05:01 29.400- 29.500
BRITE-PL 27 Aug 05:48:37 05:50:52 12° 83° (E) 05:53:06 437.365/2234.400
CUBESAT XI-V 27 Aug 05:51:31 05:56:07 81° 74° (ENE) 06:00:47 437.345
SO-50 27 Aug 05:58:57 06:00:40 12° 8° (N) 06:02:23 436.795
Gurwin Techsat 1B 27 Aug 06:02:28 06:04:34 12° 309° (NW) 06:06:41 435.225
ITAMSAT 1 27 Aug 06:08:33 06:12:47 26° 299° (WNW) 06:17:00 435.822/435.867
PHONESAT 2.4 27 Aug 06:09:27 06:11:28 17° 187° (S) 06:13:30 2401.200-2431.200
KKS-1 27 Aug 06:12:39 06:14:42 13° 272° (W) 06:16:44 437.445
MOZHAYETS 4 27 Aug 06:14:53 06:15:55 11° 274° (W) 06:16:58
YUBILEINY 27 Aug 06:27:03 06:34:44 35° 83° (E) 06:42:24 435.215
AO-85 27 Aug 06:29:17 06:34:15 43° 120° (ESE) 06:38:58 145.980
RS-15 27 Aug 06:46:35 06:57:33 37° 352° (N) 07:08:48 29.354- 29.394
STARS 27 Aug 06:52:04 06:52:29 10° 274° (W) 06:52:54 437.465
Cubesat XI-IV 27 Aug 06:52:36 06:56:10 18° 89° (E) 06:59:43 437.490
STRAND 1 27 Aug 06:56:28 07:00:47 29° 63° (ENE) 07:05:08 437.568
Cosmos 2491 27 Aug 07:04:05 07:12:46 64° 268° (W) 07:21:27 435.465 / 435.565
CUTE-I 27 Aug 07:04:16 07:08:25 23° 92° (E) 07:12:33 437.470
GOMX 1 27 Aug 07:04:33 07:09:02 25° 90° (E) 07:13:21 467.674
Cosmos 2504 27 Aug 07:06:22 07:12:14 22° 79° (E) 07:17:50 435.465 / 435.565
NOAA 15 27 Aug 07:07:19 07:11:58 30° 95° (E) 07:16:34 137.62
DOVE 4 27 Aug 07:15:32 07:18:17 14° 85° (E) 07:20:57 437.250
HORYU 2 27 Aug 07:19:13 07:23:36 60° 288° (WNW) 07:27:56 437.375
BRITE-PL 27 Aug 07:24:34 07:30:17 72° 102° (ESE) 07:35:55 437.365/2234.400
CUBESAT XI-V 27 Aug 07:31:58 07:34:07 13° 273° (W) 07:36:17 437.345
NOAA 18 27 Aug 07:38:40 07:43:46 38° 97° (E) 07:48:49 137.9125
SO-50 27 Aug 07:38:59 07:42:50 24° 32° (NNE) 07:46:34 436.795
AO-7 27 Aug 07:41:51 07:48:42 30° 311° (NW) 07:55:31 29.400- 29.500
LilacSat-2 27 Aug 07:59:07 08:02:55 73° 102° (ESE) 08:06:40 437.200
AO-85 27 Aug 08:09:57 08:14:49 39° 318° (NW) 08:19:24 145.980
YUBILEINY 27 Aug 08:22:18 08:31:03 62° 285° (WNW) 08:39:50 435.215
HO-68 27 Aug 08:29:29 08:34:58 23° 90° (E) 08:40:25 435.675
Cubesat XI-IV 27 Aug 08:31:30 08:36:49 73° 288° (WNW) 08:42:07 437.490
STRAND 1 27 Aug 08:34:55 08:39:47 45° 261° (W) 08:44:42 437.568
SEEDS 27 Aug 08:35:22 08:36:38 11° 87° (E) 08:37:54 437.485
GOMX 1 27 Aug 08:42:05 08:47:25 54° 290° (WNW) 08:52:32 467.674
CUTE-I 27 Aug 08:43:38 08:48:51 58° 291° (WNW) 08:54:03 437.470
NOAA 15 27 Aug 08:46:51 08:51:54 45° 293° (WNW) 08:56:56 137.62
DOVE 4 27 Aug 08:51:32 08:56:43 83° 285° (WNW) 09:01:35 437.250
CANX-2 27 Aug 08:53:53 08:57:32 27° 94° (E) 09:01:09 2200.000
Cosmos 2504 27 Aug 08:56:14 09:04:41 88° 278° (W) 09:12:33 435.465 / 435.565
CUTE 1.7 + AOD 2 27 Aug 09:00:05 09:03:45 27° 95° (E) 09:07:23 437.475
PRISM 27 Aug 09:00:45 09:04:40 47° 70° (ENE) 09:08:39 437.425
RS-15 27 Aug 09:02:10 09:13:52 46° 26° (NNE) 09:25:35 29.354- 29.394
Cosmos 2491 27 Aug 09:03:38 09:07:45 14° 290° (WNW) 09:11:53 435.465 / 435.565
BRITE-PL 27 Aug 09:03:53 09:08:12 23° 301° (WNW) 09:12:30 437.365/2234.400
AAUSAT CUBESAT 2 27 Aug 09:07:19 09:09:27 14° 89° (E) 09:11:35 437.432
COMPASS 1 27 Aug 09:14:05 09:17:12 20° 92° (E) 09:20:18 437.405
TIGRISAT 27 Aug 09:16:37 09:16:47 10° 54° (NE) 09:16:57 435.000
SO-50 27 Aug 09:19:10 09:23:49 76° 234° (SW) 09:28:19 436.795
NOAA 18 27 Aug 09:19:25 09:24:25 37° 297° (WNW) 09:29:23 137.9125
AIST 1 27 Aug 09:21:24 09:24:12 17° 85° (E) 09:27:03
LilacSat-2 27 Aug 09:35:14 09:36:40 12° 301° (WNW) 09:38:08 437.200
CINEMA 3 27 Aug 09:36:14 09:40:53 83° 102° (ESE) 09:45:16 145.822/145.860
AO-7 27 Aug 09:38:07 09:38:46 10° 336° (NNW) 09:39:25 29.400- 29.500
UNISAT 6 27 Aug 09:41:48 09:44:53 18° 61° (ENE) 09:47:56 437.425
Oscar 11 27 Aug 09:45:05 09:47:30 15° 89° (E) 09:49:54 145.826/435.025
FUNcube-1 27 Aug 09:51:49 09:54:16 15° 89° (E) 09:56:40 145.935
AO-85 27 Aug 09:53:50 09:56:31 14° 340° (NNW) 09:59:07 145.980
UWE-3 27 Aug 09:56:33 10:00:09 27° 94° (E) 10:03:41 435.000/436.395/437.385
CUBEBUG 2 27 Aug 09:57:38 10:01:41 40° 97° (E) 10:05:37 437.445
SEEDS 27 Aug 10:08:42 10:12:54 82° 287° (WNW) 10:17:08 437.485
ZACube-1 27 Aug 10:12:15 10:15:45 25° 94° (E) 10:19:12 437.345
Cubesat XI-IV 27 Aug 10:13:24 10:16:01 14° 308° (NW) 10:18:37 437.490
CUSAT 1 27 Aug 10:14:21 10:19:49 34° 69° (ENE) 10:26:22 437.405
HO-68 27 Aug 10:16:17 10:23:29 80° 290° (WNW) 10:30:38 435.675
ANTELSAT 27 Aug 10:17:27 10:21:38 36° 68° (ENE) 10:25:45 437.575/2403.000
BEESAT 2 27 Aug 10:18:21 10:19:24 11° 109° (ESE) 10:20:26 435.950
GOMX 1 27 Aug 10:23:04 10:24:17 11° 310° (NW) 10:25:29 467.674
YUBILEINY 27 Aug 10:24:50 10:30:03 17° 311° (NW) 10:35:17 435.215
CUTE-I 27 Aug 10:26:20 10:27:50 11° 310° (NW) 10:29:21 437.470
ISS 27 Aug 10:27:32 10:30:37 38° 147° (SSE) 10:33:43 145.825
CANX-2 27 Aug 10:29:37 10:33:25 33° 292° (WNW) 10:37:13 2200.000
DOVE 4 27 Aug 10:30:48 10:33:33 15° 305° (NW) 10:36:15 437.250
BEESAT 3 27 Aug 10:34:42 10:38:05 29° 118° (ESE) 10:41:31 437.485
CUTE 1.7 + AOD 2 27 Aug 10:35:49 10:39:37 33° 292° (WNW) 10:43:24 437.475
PRISM 27 Aug 10:37:21 10:40:14 18° 268° (W) 10:43:09 437.425
AAUSAT CUBESAT 2 27 Aug 10:41:15 10:45:22 66° 287° (WNW) 10:49:30 437.432
TIGRISAT 27 Aug 10:48:05 10:52:38 66° 73° (ENE) 10:57:07 435.000
COMPASS 1 27 Aug 10:48:59 10:52:58 44° 289° (WNW) 10:56:57 437.405
DELFI C3 27 Aug 10:49:05 10:52:32 27° 95° (E) 10:55:57 145.870
GONETS M04 27 Aug 10:49:56 10:51:16 10° 66° (ENE) 10:52:37
Cosmos 2504 27 Aug 10:53:04 10:59:10 22° 301° (WNW) 11:05:02 435.465 / 435.565
AIST 1 27 Aug 10:57:06 11:01:22 53° 283° (WNW) 11:05:42
DUCHIFAT 1 27 Aug 10:59:36 11:02:04 15° 59° (ENE) 11:04:32 145.980
QB50P2 27 Aug 11:01:05 11:04:02 18° 61° (ENE) 11:06:58 145.880/145.840
SO-50 27 Aug 11:02:14 11:03:26 11° 253° (WSW) 11:04:39 436.795
HUMSAT D 27 Aug 11:02:45 11:05:44 19° 92° (E) 11:08:43 437.325/437.525
POLYITAN 1 27 Aug 11:03:35 11:06:33 19° 61° (ENE) 11:09:31 437.675
DANDE 27 Aug 11:06:59 11:11:29 32° 72° (ENE) 11:17:11 436.750
NANOSAT C BR1 27 Aug 11:12:20 11:15:31 21° 63° (ENE) 11:18:42 145.865
CINEMA 3 27 Aug 11:14:53 11:17:20 14° 303° (WNW) 11:19:45 145.822/145.860
RS-15 27 Aug 11:15:27 11:27:53 86° 236° (SW) 11:40:09 29.354- 29.394
UNISAT 6 27 Aug 11:16:36 11:21:11 64° 259° (WSW) 11:25:41 437.425
Oscar 11 27 Aug 11:19:48 11:24:05 65° 286° (WNW) 11:28:21 145.826/435.025
FUNcube-1 27 Aug 11:26:48 11:30:55 58° 288° (WNW) 11:34:58 145.935
UWE-3 27 Aug 11:32:53 11:36:40 32° 293° (WNW) 11:40:22 435.000/436.395/437.385
CUBEBUG 2 27 Aug 11:34:43 11:38:06 23° 296° (WNW) 11:41:24 437.445
PCSat 27 Aug 11:37:37 11:39:21 11° 102° (ESE) 11:41:03 145.827
AO-85 27 Aug 11:37:53 11:39:01 11° 5° (N) 11:40:07 145.980
SEEDS 27 Aug 11:46:49 11:47:55 11° 303° (WNW) 11:49:01 437.485
ZACube-1 27 Aug 11:48:20 11:52:07 33° 292° (WNW) 11:55:51 437.345
BEESAT 2 27 Aug 11:52:35 11:56:33 89° 126° (SE) 12:00:34 435.950
ANTELSAT 27 Aug 11:54:24 11:58:23 29° 265° (W) 12:02:20 437.575/2403.000
QB50P1 27 Aug 11:54:56 11:59:06 54° 71° (ENE) 12:03:18 145.935-145.965
BUGSAT 1 27 Aug 11:55:17 11:58:43 24° 64° (ENE) 12:02:08 437.445
CUSAT 1 27 Aug 11:56:01 12:02:00 55° 264° (W) 12:09:16 437.405
ISS 27 Aug 12:03:46 12:07:01 60° 346° (NNW) 12:10:18 145.825
Cosmos 2499 27 Aug 12:04:31 12:10:38 25° 81° (E) 12:16:28 435.465 / 435.565
POPSAT HIP 1 27 Aug 12:04:49 12:09:04 67° 74° (ENE) 12:13:20 437.405
HO-68 27 Aug 12:05:09 12:10:12 21° 311° (NW) 12:15:14 435.675
JAS-2 27 Aug 12:09:34 12:14:26 41° 65° (ENE) 12:19:42 435.910
BEESAT 3 27 Aug 12:12:00 12:15:40 37° 317° (NW) 12:19:23 437.485
DELFI C3 27 Aug 12:23:52 12:27:22 30° 293° (WNW) 12:30:54 145.870
AIST 2 27 Aug 12:26:34 12:27:36 11° 109° (ESE) 12:28:38 435.215
TIGRISAT 27 Aug 12:26:56 12:29:45 16° 270° (W) 12:32:33 435.000
DUCHIFAT 1 27 Aug 12:33:00 12:37:15 70° 257° (WSW) 12:41:31 145.980
VELOX 1 27 Aug 12:33:58 12:37:03 18° 91° (E) 12:40:05 145.980
QB50P2 27 Aug 12:35:15 12:39:27 56° 259° (W) 12:43:41 145.880/145.840
CUBEBUG 1 27 Aug 12:36:38 12:40:12 23° 93° (E) 12:43:42 437.445
GONETS M04 27 Aug 12:37:28 12:45:49 52° 89° (E) 12:54:15
HUMSAT D 27 Aug 12:37:42 12:41:35 43° 290° (WNW) 12:45:28 437.325/437.525
POLYITAN 1 27 Aug 12:37:46 12:41:59 55° 260° (W) 12:46:12 437.675
NANOSAT C BR1 27 Aug 12:46:50 12:50:58 47° 261° (W) 12:55:06 145.865
AUBIESAT-1 27 Aug 12:48:49 12:52:46 41° 103° (ESE) 12:56:26 437.475
DANDE 27 Aug 12:49:26 12:54:17 44° 264° (W) 13:00:35 436.750
DX 1 27 Aug 12:52:26 12:55:31 18° 91° (E) 12:58:35 434.975-435.025
M-CUBED/EXP-1 PRIME 27 Aug 12:54:05 12:58:18 58° 106° (ESE) 13:02:09 437.505
SPROUT 27 Aug 12:56:28 12:59:07 16° 90° (E) 13:01:45 437.525
Oscar 19 27 Aug 12:58:36 13:02:49 26° 61° (ENE) 13:07:05 437.125/150
ESTCUBE 1 27 Aug 13:12:16 13:16:50 74° 102° (ESE) 13:21:22 437.505/2401.250
AO-7 27 Aug 13:12:50 13:16:32 14° 32° (NNE) 13:20:15 29.400- 29.500
PCSat 27 Aug 13:16:22 13:21:45 70° 120° (ESE) 13:27:10 145.827
AO-85 27 Aug 13:17:47 13:21:14 21° 30° (NNE) 13:24:29 145.980
50 SAT 27 Aug 13:19:10 13:22:43 47° 100° (E) 13:26:15 437.505
AISAT 27 Aug 13:22:00 13:26:25 53° 100° (E) 13:30:46 437.250
RS-15 27 Aug 13:29:05 13:38:44 29° 259° (WSW) 13:48:19 29.354- 29.394
BUGSAT 1 27 Aug 13:29:52 13:33:53 40° 262° (W) 13:37:55 437.445
BEESAT 2 27 Aug 13:32:08 13:34:56 18° 328° (NNW) 13:37:47 435.950
QB50P1 27 Aug 13:32:21 13:35:12 17° 269° (W) 13:38:05 145.935-145.965
UKube-1 27 Aug 13:32:53 13:36:54 35° 97° (E) 13:40:53 .
ISS 27 Aug 13:40:35 13:43:48 48° 6° (N) 13:47:00 145.825
CUSAT 1 27 Aug 13:42:21 13:43:07 10° 280° (W) 13:43:54 437.405
POPSAT HIP 1 27 Aug 13:43:01 13:45:18 14° 271° (W) 13:47:37 437.405
BEESAT 3 27 Aug 13:53:15 13:54:27 11° 339° (NNW) 13:55:38 437.485
Cosmos 2499 27 Aug 13:54:58 14:03:05 76° 281° (W) 14:10:36 435.465 / 435.565
JAS-2 27 Aug 13:55:09 13:59:44 31° 267° (W) 14:04:39 435.910
AIST 2 27 Aug 14:01:15 14:05:22 84° 124° (SE) 14:09:32 435.215
Gurwin Techsat 1B 27 Aug 14:05:40 14:10:42 46° 67° (ENE) 14:15:46 435.225
VELOX 1 27 Aug 14:09:28 14:13:52 56° 289° (WNW) 14:18:13 145.980
CUBEBUG 1 27 Aug 14:12:27 14:16:40 43° 291° (WNW) 14:20:50 437.445
ITAMSAT 1 27 Aug 14:12:50 14:16:31 20° 57° (ENE) 14:20:11 435.822/435.867
AUBIESAT-1 27 Aug 14:23:41 14:26:59 23° 304° (NW) 14:30:06 437.475
DX 1 27 Aug 14:27:44 14:32:02 53° 289° (WNW) 14:36:18 434.975-435.025
M-CUBED/EXP-1 PRIME 27 Aug 14:29:25 14:32:21 18° 307° (NW) 14:35:10 437.505
SPROUT 27 Aug 14:31:13 14:35:28 59° 287° (WNW) 14:39:39 437.525
GONETS M04 27 Aug 14:34:39 14:42:52 43° 292° (WNW) 14:51:12
Oscar 19 27 Aug 14:36:50 14:41:51 52° 260° (W) 14:46:57 437.125/150
ESTCUBE 1 27 Aug 14:50:21 14:53:06 16° 301° (WNW) 14:55:52 437.505/2401.250
TISAT 1 27 Aug 14:51:10 14:55:19 53° 100° (E) 14:59:25 437.305
50 SAT 27 Aug 14:53:43 14:55:57 16° 298° (WNW) 14:58:12 437.505
AO-85 27 Aug 14:57:54 15:02:18 84° 238° (WSW) 15:06:21 145.980
AISAT 27 Aug 14:59:14 15:02:33 21° 299° (WNW) 15:05:49 437.250
AO-7 27 Aug 14:59:31 15:07:10 42° 56° (NE) 15:14:49 29.400- 29.500
O/OREOS (USA 219) 27 Aug 15:00:47 15:05:11 55° 111° (ESE) 15:09:38 437.305
PCSat 27 Aug 15:01:01 15:05:39 28° 322° (NW) 15:10:18 145.827
UKube-1 27 Aug 15:09:08 15:12:50 27° 296° (WNW) 15:16:30 .
ISS 27 Aug 15:17:07 15:20:24 72° 207° (SSW) 15:23:40 145.825
ITUPSAT 1 27 Aug 15:19:57 15:23:44 23° 93° (E) 15:27:30 437.325
AIST 2 27 Aug 15:41:20 15:44:24 20° 328° (NNW) 15:47:29 435.215
Gurwin Techsat 1B 27 Aug 15:46:15 15:50:50 29° 266° (W) 15:55:27 435.225
ITAMSAT 1 27 Aug 15:50:17 15:55:27 72° 256° (WSW) 16:00:40 435.822/435.867
Cosmos 2499 27 Aug 15:52:27 15:57:31 18° 303° (WNW) 16:02:25 435.465 / 435.565
SWISSCUBE 27 Aug 15:52:36 15:57:15 50° 100° (E) 16:01:52 437.505
BEESAT 27 Aug 16:09:43 16:14:28 65° 102° (ESE) 16:19:12 436.000
KKS-1 27 Aug 16:22:23 16:23:57 12° 87° (E) 16:25:32 437.445
MOZHAYETS 4 27 Aug 16:25:36 16:28:39 17° 90° (E) 16:31:41
TISAT 1 27 Aug 16:27:39 16:30:37 19° 299° (WNW) 16:33:31 437.305
YUBILEINY 27 Aug 16:31:42 16:38:13 22° 55° (NE) 16:44:40 435.215
GONETS M04 27 Aug 16:40:38 16:42:49 11° 319° (NW) 16:45:00
AO-85 27 Aug 16:41:13 16:41:51 10° 253° (WSW) 16:42:29 145.980
O/OREOS (USA 219) 27 Aug 16:41:22 16:44:56 22° 311° (NW) 16:48:33 437.305
HORYU 2 27 Aug 16:45:01 16:48:41 26° 63° (ENE) 16:52:22 437.375
PCSat 27 Aug 16:48:58 16:50:58 12° 347° (NNW) 16:52:59 145.827
AO-7 27 Aug 16:51:32 16:59:43 57° 257° (WSW) 17:07:57 29.400- 29.500
ISS 27 Aug 16:54:30 16:56:24 15° 223° (SW) 16:58:19 145.825
NOAA 15 27 Aug 16:55:04 16:57:18 13° 51° (NE) 16:59:32 137.62
CUTE-I 27 Aug 16:55:11 16:55:43 10° 49° (NE) 16:56:15 437.470
ITUPSAT 1 27 Aug 16:57:13 17:01:49 49° 291° (WNW) 17:06:25 437.325
STARS 27 Aug 16:58:11 17:00:23 13° 89° (E) 17:02:34 437.465
BRITE-PL 27 Aug 17:02:29 17:05:59 19° 57° (ENE) 17:09:39 437.365/2234.400
BEESAT 3 27 Aug 17:11:09 17:13:24 14° 27° (NNE) 17:15:39 437.485
NOAA 18 27 Aug 17:30:23 17:34:12 19° 55° (NE) 17:38:01 137.9125
SWISSCUBE 27 Aug 17:30:59 17:34:46 24° 298° (WNW) 17:38:32 437.505
ITAMSAT 1 27 Aug 17:35:00 17:35:51 10° 275° (W) 17:36:42 435.822/435.867
CUBESAT XI-V 27 Aug 17:45:20 17:48:14 16° 89° (E) 17:51:08 437.345
BEESAT 27 Aug 17:48:28 17:51:48 19° 301° (WNW) 17:55:08 436.000
KKS-1 27 Aug 17:56:40 18:01:10 86° 286° (WNW) 18:05:38 437.445
MOZHAYETS 4 27 Aug 18:01:41 18:06:13 60° 288° (WNW) 18:10:43
Cosmos 2491 27 Aug 18:14:17 18:21:45 33° 82° (E) 18:29:14 435.465 / 435.565
GOMX 1 27 Aug 18:15:36 18:20:20 38° 66° (ENE) 18:25:19 467.674
Cubesat XI-IV 27 Aug 18:17:47 18:22:47 42° 66° (ENE) 18:27:48 437.490
HORYU 2 27 Aug 18:20:51 18:25:04 40° 262° (W) 18:29:18 437.375
DOVE 4 27 Aug 18:23:31 18:27:38 24° 61° (ENE) 18:31:49 437.250
YUBILEINY 27 Aug 18:27:43 18:36:35 82° 80° (E) 18:45:18 435.215
CUTE-I 27 Aug 18:29:29 18:34:38 53° 69° (ENE) 18:39:48 437.470
BEESAT 2 27 Aug 18:29:46 18:33:17 28° 39° (NE) 18:36:47 435.950
NOAA 15 27 Aug 18:30:55 18:36:07 67° 72° (ENE) 18:41:23 137.62
STARS 27 Aug 18:32:51 18:37:17 73° 287° (WNW) 18:41:39 437.465
PCSat 27 Aug 18:34:51 18:36:58 12° 14° (NNE) 18:39:04 145.827
BRITE-PL 27 Aug 18:38:53 18:43:47 76° 258° (WSW) 18:49:09 437.365/2234.400
LilacSat-2 27 Aug 18:44:18 18:48:06 61° 73° (ENE) 18:51:53 437.200
Cosmos 2504 27 Aug 18:44:42 18:51:34 41° 70° (ENE) 18:58:14 435.465 / 435.565
BEESAT 3 27 Aug 18:47:54 18:51:51 61° 48° (NE) 18:55:47 437.485
AO-7 27 Aug 18:51:48 18:54:23 12° 278° (W) 18:56:59 29.400- 29.500
HO-68 27 Aug 19:02:26 19:08:18 28° 54° (NE) 19:14:11 435.675
AIST 2 27 Aug 19:04:08 19:04:58 10° 16° (NNE) 19:05:46 435.215
CINEMA 3 27 Aug 19:05:35 19:08:57 18° 59° (ENE) 19:12:16 145.822/145.860
NOAA 18 27 Aug 19:08:40 19:14:14 83° 255° (WSW) 19:19:48 137.9125
CUBESAT XI-V 27 Aug 19:21:25 19:26:07 69° 287° (WNW) 19:30:48 437.345
SEEDS 27 Aug 19:30:33 19:32:41 14° 59° (ENE) 19:34:50 437.485
KKS-1 27 Aug 19:35:04 19:37:02 13° 304° (NW) 19:39:00 437.445
CANX-2 27 Aug 19:50:10 19:53:52 31° 67° (ENE) 19:57:36 2200.000
GOMX 1 27 Aug 19:53:42 19:58:24 36° 266° (W) 20:03:22 467.674
CUTE 1.7 + AOD 2 27 Aug 19:56:15 19:59:58 31° 68° (ENE) 20:03:43 437.475
Cubesat XI-IV 27 Aug 19:58:14 20:02:58 32° 265° (W) 20:07:43 437.490
DOVE 4 27 Aug 19:59:46 20:04:54 60° 260° (W) 20:10:11 437.250
AAUSAT CUBESAT 2 27 Aug 20:01:17 20:03:46 16° 61° (ENE) 20:06:16 437.432
BEESAT 2 27 Aug 20:07:26 20:11:16 44° 239° (WSW) 20:15:04 435.950
COMPASS 1 27 Aug 20:08:29 20:11:41 22° 64° (ENE) 20:14:55 437.405
Cosmos 2491 27 Aug 20:09:24 20:18:01 64° 284° (WNW) 20:26:47 435.465 / 435.565
CUTE-I 27 Aug 20:10:37 20:14:58 25° 267° (W) 20:19:22 437.470
STARS 27 Aug 20:11:46 20:12:50 11° 306° (NW) 20:13:54 437.465
NOAA 15 27 Aug 20:12:40 20:16:25 19° 270° (W) 20:20:10 137.62
PCSat 27 Aug 20:17:33 20:22:16 29° 39° (NE) 20:26:56 145.827
LilacSat-2 27 Aug 20:21:02 20:22:48 13° 271° (W) 20:24:33 437.200
BRITE-PL 27 Aug 20:22:02 20:23:19 11° 279° (W) 20:24:38 437.365/2234.400
YUBILEINY 27 Aug 20:25:42 20:32:21 25° 282° (WNW) 20:38:56 435.215
BEESAT 3 27 Aug 20:26:32 20:29:07 17° 247° (WSW) 20:31:42 437.485
Cosmos 2504 27 Aug 20:38:13 20:44:59 43° 272° (W) 20:51:36 435.465 / 435.565
CINEMA 3 27 Aug 20:40:31 20:45:32 75° 258° (WSW) 20:50:31 145.822/145.860
AIST 2 27 Aug 20:41:04 20:44:46 29° 39° (NE) 20:48:28 435.215
STRAND 1 27 Aug 20:41:14 20:46:09 46° 99° (E) 20:51:03 437.568
Oscar 11 27 Aug 20:43:19 20:46:21 19° 62° (ENE) 20:49:24 145.826/435.025
HO-68 27 Aug 20:48:13 20:55:25 76° 254° (WSW) 21:02:40 435.675
FUNcube-1 27 Aug 20:50:32 20:53:50 21° 63° (ENE) 20:57:06 145.935
NOAA 18 27 Aug 20:53:05 20:55:44 13° 273° (W) 20:58:23 137.9125
UWE-3 27 Aug 20:56:34 21:00:45 37° 68° (ENE) 21:04:51 435.000/436.395/437.385
CUBEBUG 2 27 Aug 20:58:36 21:03:10 55° 72° (ENE) 21:07:38 437.445
AIST 1 27 Aug 21:00:02 21:04:23 55° 77° (ENE) 21:08:42
CUBESAT XI-V 27 Aug 21:01:22 21:02:38 11° 306° (NW) 21:03:53 437.345
SEEDS 27 Aug 21:03:41 21:07:50 75° 257° (WSW) 21:12:01 437.485
ZACube-1 27 Aug 21:11:13 21:15:12 34° 68° (ENE) 21:19:09 437.345
CANX-2 27 Aug 21:26:05 21:29:44 28° 265° (W) 21:33:24 2200.000
CUTE 1.7 + AOD 2 27 Aug 21:32:11 21:35:50 28° 265° (W) 21:39:29 437.475
AAUSAT CUBESAT 2 27 Aug 21:34:45 21:38:48 62° 259° (W) 21:42:54 437.432
DELFI C3 27 Aug 21:38:35 21:41:52 26° 66° (ENE) 21:45:13 145.870
COMPASS 1 27 Aug 21:43:09 21:47:02 40° 262° (W) 21:50:58 437.405
HUMSAT D 27 Aug 21:57:32 22:00:49 23° 65° (ENE) 22:04:05 437.325/437.525
PCSat 27 Aug 22:00:42 22:06:06 67° 240° (WSW) 22:11:28 145.827
AUBIESAT-1 27 Aug 22:04:51 22:07:47 17° 53° (NE) 22:10:42 437.475
M-CUBED/EXP-1 PRIME 27 Aug 22:09:52 22:13:25 22° 55° (NE) 22:16:58 437.505
Cosmos 2491 27 Aug 22:11:43 22:17:00 17° 310° (NW) 22:22:20 435.465 / 435.565
PRISM 27 Aug 22:13:31 22:17:33 45° 99° (E) 22:21:34 437.425
Oscar 11 27 Aug 22:17:55 22:22:08 53° 260° (W) 22:26:22 145.826/435.025
AIST 2 27 Aug 22:19:25 22:23:25 45° 239° (WSW) 22:27:25 435.215
STRAND 1 27 Aug 22:20:49 22:25:09 28° 298° (WNW) 22:29:27 437.568
CINEMA 3 27 Aug 22:22:22 22:23:28 11° 276° (W) 22:24:33 145.822/145.860
FUNcube-1 27 Aug 22:25:31 22:29:48 49° 261° (W) 22:34:02 145.935
UWE-3 27 Aug 22:33:24 22:37:17 27° 266° (W) 22:41:07 435.000/436.395/437.385
CUBEBUG 2 27 Aug 22:36:45 22:40:06 19° 269° (W) 22:43:24 437.445
AIST 1 27 Aug 22:38:43 22:41:32 17° 276° (W) 22:44:20
HO-68 27 Aug 22:40:17 22:44:21 16° 275° (W) 22:48:26 435.675
ESTCUBE 1 27 Aug 22:40:57 22:43:28 15° 58° (ENE) 22:46:00 437.505/2401.250
GONETS M04 27 Aug 22:42:47 22:50:34 33° 63° (ENE) 22:58:18
ZACube-1 27 Aug 22:47:40 22:51:32 28° 265° (W) 22:55:20 437.345
AISAT 27 Aug 22:49:59 22:51:22 11° 55° (NE) 22:52:45 437.250
UNISAT 6 27 Aug 23:05:20 23:08:29 20° 91° (E) 23:11:37 437.425
DELFI C3 27 Aug 23:13:10 23:16:39 30° 264° (W) 23:20:11 145.870
CUSAT 1 27 Aug 23:26:07 23:26:41 10° 80° (E) 23:27:16 437.405
O/OREOS (USA 219) 27 Aug 23:27:57 23:31:59 29° 52° (NE) 23:36:01 437.305
HUMSAT D 27 Aug 23:32:21 23:36:15 39° 262° (W) 23:40:09 437.325/437.525
VELOX 1 27 Aug 23:34:34 23:38:14 26° 64° (ENE) 23:41:57 145.980
CUBEBUG 1 27 Aug 23:35:57 23:39:48 30° 66° (ENE) 23:43:42 437.445
AUBIESAT-1 27 Aug 23:37:00 23:41:40 84° 253° (WSW) 23:46:18 437.475
SO-50 27 Aug 23:38:35 23:41:17 15° 110° (ESE) 23:43:59 436.795
Cosmos 2499 27 Aug 23:41:34 23:48:24 47° 72° (ENE) 23:55:11 435.465 / 435.565
ANTELSAT 27 Aug 23:41:39 23:45:47 43° 98° (E) 23:49:51 437.575/2403.000
M-CUBED/EXP-1 PRIME 27 Aug 23:42:51 23:47:31 63° 253° (WSW) 23:52:12 437.505
PCSat 27 Aug 23:47:18 23:48:28 11° 259° (W) 23:49:37 145.827
PRISM 27 Aug 23:49:25 23:52:35 21° 297° (WNW) 23:55:45 437.425
DX 1 27 Aug 23:51:15 23:54:53 26° 64° (ENE) 23:58:34 434.975-435.025
SPROUT 27 Aug 23:53:25 23:56:38 21° 62° (ENE) 23:59:51 437.525
50 SAT 27 Aug 23:59:51 00:03:10 37° 70° (ENE) 00:06:30 437.505
TIGRISAT 28 Aug 00:12:27 00:16:47 86° 102° (ESE) 00:21:03 435.000
DUCHIFAT 1 28 Aug 00:14:44 00:17:02 14° 89° (E) 00:19:18 145.980
ESTCUBE 1 28 Aug 00:15:12 00:19:41 79° 256° (WSW) 00:24:14 437.505/2401.250
QB50P2 28 Aug 00:17:12 00:20:09 18° 91° (E) 00:23:04 145.880/145.840
POLYITAN 1 28 Aug 00:19:42 00:22:40 18° 91° (E) 00:25:36 437.675
AISAT 28 Aug 00:22:36 00:27:03 75° 74° (ENE) 00:31:33 437.250
DANDE 28 Aug 00:24:41 00:25:08 10° 86° (E) 00:25:36 436.750
NANOSAT C BR1 28 Aug 00:27:57 00:31:09 21° 92° (E) 00:34:20 145.865
UKube-1 28 Aug 00:30:40 00:34:50 48° 70° (ENE) 00:39:02 .
GONETS M04 28 Aug 00:39:22 00:48:10 70° 266° (W) 00:56:55
UNISAT 6 28 Aug 00:41:21 00:45:29 46° 290° (WNW) 00:49:35 437.425
JAS-2 28 Aug 00:57:31 01:03:29 32° 94° (E) 01:09:59 435.910
CUSAT 1 28 Aug 01:04:52 01:07:52 45° 289° (WNW) 01:11:39 437.405
O/OREOS (USA 219) 28 Aug 01:07:13 01:11:31 40° 252° (WSW) 01:15:48 437.305
BUGSAT 1 28 Aug 01:08:16 01:11:33 22° 93° (E) 01:14:47 437.445
VELOX 1 28 Aug 01:10:21 01:14:32 40° 262° (W) 01:18:46 145.980
QB50P1 28 Aug 01:11:29 01:15:41 60° 101° (E) 01:19:50 145.935-145.965
CUBEBUG 1 28 Aug 01:12:04 01:16:02 32° 264° (W) 01:20:03 437.445
AUBIESAT-1 28 Aug 01:15:06 01:16:44 12° 268° (W) 01:18:22 437.475
SO-50 28 Aug 01:16:15 01:21:08 90° 92° (E) 01:25:57 436.795
ANTELSAT 28 Aug 01:18:55 01:22:16 22° 297° (WNW) 01:25:33 437.575/2403.000
POPSAT HIP 1 28 Aug 01:21:30 01:25:45 75° 103° (ESE) 01:29:57 437.405
DX 1 28 Aug 01:26:52 01:30:56 38° 262° (W) 01:35:03 434.975-435.025
SWISSCUBE 28 Aug 01:27:46 01:30:12 14° 55° (NE) 01:32:38 437.505
SPROUT 28 Aug 01:28:05 01:32:16 49° 261° (W) 01:36:29 437.525
50 SAT 28 Aug 01:34:26 01:36:55 18° 268° (W) 01:39:25 437.505
